Regional Weather Roundup
Issued by NWS Goodland, KS

Home | Current Version | Previous Version | Text Only | Print | Product List | Glossary Off
Versions: 1 2 3 4 5 6 7 8 9 10 11 12 13 14 15 16 17 18 19 20 21 22 23 24 25 26 27 28 29 30 31 32 33 34 35 36 37 38 39 40 41 42 43 44 45 46 47 48 49 50

000
ASUS43 KGLD 261159
RWRGLD

GOODLAND FORECAST AREA HOURLY WEATHER ROUNDUP
NATIONAL WEATHER SERVICE GOODLAND KS
500 AM MST FRI DEC 26 2014

...OFFICIAL OBSERVATIONS...

CITY           SKY/WX    TMP DP  RH WIND       PRES   REMARKS
GOODLAND KS    CLOUDY    24  22  91 N16G22    29.89R WCI  11
HILL CITY KS   CLOUDY    30  24  78 N13       29.93R WCI  20
IMPERIAL NEB   CLOUDY    23  19  85 N17       29.95R WCI   9
MCCOOK NEB     CLOUDY    26  21  81 N18       29.94R WCI  13
AKRON CO       CLOUDY    19  17  92 N18       29.89R WCI   4
BURLINGTON CO  CLOUDY    22  20  92 N17G26    29.88R FOG     WCI   8
LIMON CO       LGT SNOW  17  15  92 N18       29.85R FOG     WCI   1
$$

...UNOFFICIAL OBSERVATIONS...

CITY           SKY/WX    TMP DP  RH WIND       PRES   REMARKS
COLBY KS       CLOUDY    27  27 100 N20       29.90R WCI  13
NORTON KS      CLOUDY    28  21  74 N15       29.91S WCI  17
SHARON SPRINGS   N/A     25  22  86 NE12G20     N/A  WCI  14
TRIBUNE KS     CLOUDY    28  25  86 N16       29.89R WCI  17
KIT CARSON CO    N/A     22  19  87 MISG        N/A
YUMA CO          N/A     21  17  84 NE16G23     N/A  WCI   7
$$



USA.gov is the U.S. government's official web portal to all federal, state and local government web resources and services.